Location: Helsinki
(60.1699°N, 24.9384°E)
Time: 19:28:26
(UTC+02:00)

Transit 4A - Pass Details

Date: 04 November 2020
Orbit: 862 x 982 km, 66.8° (Epoch: 30 November)

Event Time Altitude Azimuth Distance (km) Brightness Sun altitude
Rises 18:27:07 0° 283° (WNW) 3,676 12.5 -16.4°
Reaches altitude 10° 18:29:48 10° 289° (WNW) 2,737 11.4 -16.8°
Maximum altitude 18:36:00 48° 3° (N) 1,277 8.6 -17.5°
Enters shadow 18:39:30 25° 64° (ENE) 1,872 9.0 -18.0°
Drops below altitude 10° 18:42:12 10° 77° (ENE) 2,737 - -18.3°
Sets 18:44:53 0° 83° (E) 3,676 - -18.6°
